SWA1640 KBNA-KHSV

Flight info

Callsign SWA1640
Flight time 0h 20m
Altitude 14000
Route FLAME4 GENDE MARZZ
Aircraft B736/M-SDE2E3FGHIRWXY/LB1

Departure

Time 2026-04-26 22:40
Airport Nashville International Airport (KBNA)

Arrival

Time 2026-04-26 23:00
Airport Huntsville International Airport (KHSV)
Time Latitude Longitude Altitude Speed Heading
2026-04-26 22:23 36.12844 -86.66902 568 ft 0 kts 212°
2026-04-26 22:31 36.12854 -86.66894 575 ft 3 kts 211°
2026-04-26 22:31 36.12872 -86.66883 568 ft 3 kts 200°
2026-04-26 22:31 36.12889 -86.66878 568 ft 3 kts 161°
2026-04-26 22:31 36.12898 -86.66883 570 ft 1 kts 131°
2026-04-26 22:34 36.12887 -86.66867 570 ft 7 kts 131°
2026-04-26 22:34 36.12840 -86.66800 567 ft 14 kts 130°
2026-04-26 22:34 36.12739 -86.66797 572 ft 20 kts 220°
2026-04-26 22:35 36.12637 -86.66874 569 ft 16 kts 182°
2026-04-26 22:35 36.12533 -86.66917 566 ft 16 kts 209°
2026-04-26 22:35 36.12441 -86.66982 563 ft 15 kts 208°
2026-04-26 22:35 36.12359 -86.67058 568 ft 14 kts 223°
2026-04-26 22:36 36.12288 -86.67141 568 ft 14 kts 225°
2026-04-26 22:36 36.12221 -86.67223 565 ft 13 kts 223°
2026-04-26 22:36 36.12209 -86.67320 573 ft 13 kts 306°
2026-04-26 22:36 36.12272 -86.67405 575 ft 15 kts 313°
2026-04-26 22:37 36.12334 -86.67515 572 ft 17 kts 262°
2026-04-26 22:37 36.12296 -86.67646 574 ft 18 kts 298°
2026-04-26 22:37 36.12361 -86.67774 567 ft 18 kts 291°
2026-04-26 22:37 36.12382 -86.67855 566 ft 0 kts 288°
2026-04-26 22:38 36.12384 -86.67860 565 ft 0 kts 288°
2026-04-26 22:38 36.12384 -86.67861 562 ft 1 kts 288°
2026-04-26 22:38 36.12394 -86.67900 565 ft 10 kts 288°
2026-04-26 22:39 36.12363 -86.67987 561 ft 18 kts 205°
2026-04-26 22:39 36.11997 -86.68132 569 ft 94 kts 198°
2026-04-26 22:39 36.11161 -86.68460 599 ft 155 kts 196°
2026-04-26 22:39 36.10081 -86.68936 1098 ft 170 kts 196°
2026-04-26 22:40 36.08976 -86.69387 2019 ft 160 kts 192°
2026-04-26 22:40 36.07932 -86.69758 2878 ft 158 kts 193°
2026-04-26 22:40 36.06766 -86.70165 3249 ft 192 kts 195°
2026-04-26 22:40 36.05371 -86.70668 3599 ft 225 kts 194°
2026-04-26 22:41 36.03765 -86.71258 3900 ft 258 kts 195°
2026-04-26 22:41 36.01995 -86.71922 4552 ft 270 kts 195°
2026-04-26 22:41 36.00189 -86.72606 5497 ft 273 kts 195°
2026-04-26 22:41 35.98371 -86.73297 6487 ft 275 kts 195°
2026-04-26 22:42 35.96539 -86.73993 7472 ft 276 kts 195°
2026-04-26 22:42 35.94691 -86.74684 8480 ft 279 kts 193°
2026-04-26 22:42 35.92770 -86.75044 9551 ft 280 kts 182°
2026-04-26 22:42 35.90806 -86.75180 10494 ft 289 kts 181°
2026-04-26 22:43 35.88702 -86.75282 10827 ft 318 kts 181°
2026-04-26 22:43 35.86412 -86.75395 11343 ft 337 kts 181°
2026-04-26 22:43 35.84040 -86.75527 12121 ft 346 kts 182°
2026-04-26 22:43 35.81611 -86.75678 13018 ft 352 kts 183°
2026-04-26 22:44 35.79145 -86.75840 13686 ft 356 kts 184°
2026-04-26 22:44 35.76665 -86.76009 13966 ft 359 kts 184°
2026-04-26 22:44 35.74112 -86.76189 13994 ft 373 kts 184°
2026-04-26 22:44 35.71502 -86.76372 14007 ft 377 kts 184°
2026-04-26 22:45 35.68886 -86.76554 13989 ft 376 kts 184°
2026-04-26 22:45 35.66270 -86.76738 13991 ft 377 kts 184°
2026-04-26 22:45 35.63651 -86.76921 13995 ft 377 kts 184°
2026-04-26 22:45 35.61031 -86.77105 13993 ft 377 kts 184°
2026-04-26 22:46 35.58409 -86.77289 13996 ft 377 kts 184°
2026-04-26 22:46 35.55785 -86.77472 13987 ft 377 kts 184°
2026-04-26 22:46 35.53165 -86.77654 13987 ft 377 kts 184°
2026-04-26 22:46 35.50581 -86.77829 13991 ft 377 kts 184°
2026-04-26 22:47 35.47932 -86.78001 13988 ft 374 kts 183°
2026-04-26 22:47 35.45377 -86.78056 13974 ft 361 kts 181°
2026-04-26 22:47 35.42939 -86.78039 13904 ft 350 kts 181°
2026-04-26 22:47 35.40527 -86.78006 13408 ft 346 kts 180°
2026-04-26 22:48 35.38099 -86.77976 12594 ft 351 kts 180°
2026-04-26 22:48 35.35621 -86.77952 11956 ft 350 kts 180°
2026-04-26 22:48 35.33200 -86.77935 11439 ft 346 kts 181°
2026-04-26 22:48 35.30847 -86.77922 11061 ft 338 kts 180°
2026-04-26 22:49 35.28521 -86.77912 10933 ft 323 kts 180°
2026-04-26 22:49 35.26352 -86.77905 10830 ft 309 kts 180°
2026-04-26 22:49 35.24252 -86.77898 10743 ft 295 kts 180°
2026-04-26 22:49 35.22241 -86.77893 10628 ft 284 kts 180°
2026-04-26 22:50 35.20277 -86.77887 10339 ft 281 kts 180°
2026-04-26 22:50 35.18319 -86.77882 9950 ft 282 kts 180°
2026-04-26 22:50 35.16357 -86.77877 9586 ft 282 kts 180°
2026-04-26 22:50 35.14404 -86.77872 9269 ft 279 kts 180°
2026-04-26 22:51 35.12466 -86.77867 8928 ft 278 kts 180°
2026-04-26 22:51 35.10539 -86.77862 8586 ft 276 kts 179°
2026-04-26 22:51 35.08622 -86.77857 8255 ft 275 kts 179°
2026-04-26 22:51 35.06713 -86.77852 7928 ft 273 kts 179°
2026-04-26 22:52 35.04816 -86.77847 7595 ft 272 kts 179°
2026-04-26 22:52 35.02930 -86.77842 7277 ft 271 kts 179°
2026-04-26 22:52 35.01050 -86.77837 6950 ft 269 kts 179°
2026-04-26 22:52 34.99182 -86.77832 6637 ft 268 kts 179°
2026-04-26 22:53 34.97322 -86.77827 6338 ft 266 kts 179°
2026-04-26 22:53 34.95474 -86.77818 5994 ft 265 kts 178°
2026-04-26 22:53 34.93630 -86.77761 5635 ft 265 kts 178°
2026-04-26 22:53 34.91809 -86.77731 5480 ft 257 kts 179°
2026-04-26 22:54 34.90070 -86.77735 5368 ft 242 kts 179°
2026-04-26 22:54 34.88427 -86.77754 5021 ft 233 kts 179°
2026-04-26 22:54 34.86830 -86.77780 4720 ft 225 kts 179°
2026-04-26 22:54 34.85295 -86.77809 4431 ft 217 kts 180°
2026-04-26 22:55 34.83807 -86.77838 4140 ft 211 kts 179°
2026-04-26 22:55 34.82363 -86.77868 3866 ft 201 kts 180°
2026-04-26 22:55 34.81019 -86.77896 3605 ft 186 kts 179°
2026-04-26 22:55 34.79763 -86.77921 3374 ft 175 kts 179°
2026-04-26 22:56 34.78585 -86.77944 3151 ft 164 kts 179°
2026-04-26 22:56 34.77482 -86.77967 2959 ft 153 kts 178°
2026-04-26 22:56 34.76467 -86.77987 2788 ft 139 kts 179°
2026-04-26 22:56 34.75529 -86.78006 2583 ft 131 kts 178°
2026-04-26 22:57 34.74618 -86.78023 2413 ft 130 kts 178°
2026-04-26 22:57 34.73727 -86.78040 2250 ft 128 kts 177°
2026-04-26 22:57 34.72829 -86.78059 2107 ft 130 kts 180°
2026-04-26 22:57 34.71934 -86.78077 1936 ft 127 kts 178°
2026-04-26 22:58 34.71055 -86.78094 1778 ft 128 kts 178°
2026-04-26 22:58 34.70177 -86.78111 1613 ft 126 kts 180°
2026-04-26 22:58 34.69301 -86.78129 1446 ft 125 kts 179°
2026-04-26 22:58 34.68421 -86.78147 1296 ft 128 kts 180°
2026-04-26 22:59 34.67533 -86.78165 1121 ft 127 kts 180°
2026-04-26 22:59 34.66653 -86.78183 958 ft 126 kts 181°
2026-04-26 22:59 34.65776 -86.78200 784 ft 126 kts 180°
2026-04-26 22:59 34.64899 -86.78218 637 ft 123 kts 180°
2026-04-26 23:00 34.64152 -86.78232 628 ft 87 kts 181°
2026-04-26 23:00 34.63693 -86.78239 634 ft 44 kts 180°
2026-04-26 23:00 34.63479 -86.78218 639 ft 23 kts 135°
2026-04-26 23:00 34.63464 -86.78104 637 ft 0 kts 91°
2026-04-26 23:01 34.63464 -86.78101 637 ft 1 kts 91°
2026-04-26 23:02 34.63463 -86.78065 636 ft 9 kts 90°
2026-04-26 23:02 34.63520 -86.77995 639 ft 16 kts
2026-04-26 23:02 34.63651 -86.77993 639 ft 22 kts
2026-04-26 23:02 34.63833 -86.77989 634 ft 29 kts
2026-04-26 23:03 34.64036 -86.77983 634 ft 28 kts
2026-04-26 23:03 34.64225 -86.77978 633 ft 26 kts 358°
2026-04-26 23:03 34.64379 -86.77907 634 ft 24 kts 50°
2026-04-26 23:03 34.64481 -86.77754 631 ft 23 kts 51°
2026-04-26 23:04 34.64545 -86.77609 631 ft 18 kts 98°
2026-04-26 23:04 34.64532 -86.77458 629 ft 18 kts 88°
2026-04-26 23:04 34.64610 -86.77381 630 ft 17 kts 359°
2026-04-26 23:04 34.64683 -86.77397 631 ft 7 kts 306°
2026-04-26 23:05 34.64689 -86.77439 629 ft 0 kts 277°